Location: Caltech
(34.1382°N, 118.1253°W)
Time: 04:34:45
(UTC-07:00)

Cosmos 1626 - Visible Passes

Search period start: 28 June 2016 00:00
Search period end: 08 July 2016 00:00
Orbit: 500 x 503 km, 82.5° (Epoch: 28 June)

Date Brightness Start Highest point End Pass type
(mag) Time Alt. Az. Time Alt. Az. Time Alt. Az.
28 Jun 3.7 23:10:26 35° NNW 23:10:26 35° NNW 23:12:57 10° N visible
29 Jun 3.0 22:50:49 47° NNW 22:50:49 47° NNW 22:53:37 10° N visible
30 Jun 2.6 22:31:10 54° NNE 22:31:10 54° NNE 22:34:11 10° N visible
01 Jul 2.6 22:11:29 46° ENE 22:11:29 46° ENE 22:14:40 10° NNE visible
02 Jul 2.9 21:51:46 33° E 21:51:46 33° E 21:55:03 10° NNE visible
02 Jul 5.1 23:26:27 11° W 23:27:10 11° WNW 23:28:20 10° NW visible
03 Jul 3.4 21:32:00 23° E 21:32:16 24° E 21:35:19 10° NE visible
03 Jul 4.7 23:06:41 15° W 23:07:38 16° WNW 23:09:58 10° NW visible
04 Jul 3.8 21:12:11 16° ESE 21:12:55 17° E 21:15:23 10° NE visible
04 Jul 4.3 22:46:52 19° WSW 22:48:07 22° WNW 22:51:05 10° NNW visible
05 Jul 4.2 20:52:20 10° ESE 20:53:35 12° E 20:55:01 10° ENE visible
05 Jul 3.8 22:27:00 22° WSW 22:28:38 31° W 22:31:59 10° NNW visible
06 Jul 3.1 22:07:04 22° SW 22:09:09 44° W 22:12:45 10° N visible
07 Jul 2.4 21:47:03 18° SSW 21:49:42 67° W 21:53:26 10° N visible
